Time,TemperatureF,DewpointF,PressureIn,WindDirection,WindDirectionDegrees,WindSpeedMPH,WindSpeedGustMPH,Humidity,HourlyPrecipIn,Conditions,Clouds,dailyrainin,SolarRadiationWatts/m^2,SoftwareType,DateUTC
2013-03-06 00:01:00,14.6,11.2,30.37,NNW,339,2.0,2.0,86,0.00,,,0.00,0,Wunderground v.1.15,2013-03-06 06:01:00,
2013-03-06 00:06:00,14.1,10.7,30.37,NNW,339,0.0,2.0,86,0.00,,,0.00,0,Wunderground v.1.15,2013-03-06 06:06:00,
2013-03-06 00:11:00,13.5,10.1,30.37,NNW,339,0.0,1.0,86,0.00,,,0.00,0,Wunderground v.1.15,2013-03-06 06:11:00,
2013-03-06 00:16:00,13.3,9.9,30.36,NNW,339,0.0,1.0,86,0.00,,,0.00,0,Wunderground v.1.15,2013-03-06 06:16:00,
2013-03-06 00:21:00,13.3,9.9,30.37,NNW,339,0.0,0.0,86,0.00,,,0.00,0,Wunderground v.1.15,2013-03-06 06:21:00,
2013-03-06 00:27:00,13.3,9.9,30.37,NNW,339,0.0,0.0,86,0.00,,,0.00,0,Wunderground v.1.15,2013-03-06 06:27:00,
2013-03-06 00:32:00,13.4,10.0,30.37,NNW,339,0.0,0.0,86,0.00,,,0.00,0,Wunderground v.1.15,2013-03-06 06:32:00,
2013-03-06 00:37:00,13.7,10.5,30.37,NNW,339,0.0,1.0,87,0.00,,,0.00,0,Wunderground v.1.15,2013-03-06 06:37:00,
2013-03-06 00:42:00,14.2,11.0,30.37,NNW,339,0.0,0.0,87,0.00,,,0.00,0,Wunderground v.1.15,2013-03-06 06:42:00,
2013-03-06 00:48:00,14.7,11.5,30.38,NNW,339,0.0,0.0,87,0.00,,,0.00,0,Wunderground v.1.15,2013-03-06 06:48:00,
2013-03-06 00:53:00,14.7,11.5,30.37,NNW,339,0.0,0.0,87,0.00,,,0.00,0,Wunderground v.1.15,2013-03-06 06:53:00,
2013-03-06 02:35:00,10.7,7.6,30.38,NNW,339,0.0,0.0,87,0.00,,,0.00,0,Wunderground v.1.15,2013-03-06 08:35:00,
2013-03-06 02:40:00,10.3,7.2,30.37,NNW,339,0.0,0.0,87,0.00,,,0.00,0,Wunderground v.1.15,2013-03-06 08:40:00,
2013-03-06 02:45:00,9.9,6.8,30.38,NNW,339,0.0,0.0,87,0.00,,,0.00,0,Wunderground v.1.15,2013-03-06 08:45:00,
2013-03-06 02:50:00,9.9,7.1,30.37,NNW,339,0.0,0.0,88,0.00,,,0.00,0,Wunderground v.1.15,2013-03-06 08:50:00,
2013-03-06 02:55:00,9.9,6.8,30.37,NNW,339,0.0,0.0,87,0.00,,,0.00,0,Wunderground v.1.15,2013-03-06 08:55:00,
2013-03-06 03:00:00,10.0,7.2,30.37,NNW,339,0.0,0.0,88,0.00,,,0.00,0,Wunderground v.1.15,2013-03-06 09:00:00,
2013-03-06 03:05:00,10.1,7.3,30.37,NNW,339,0.0,0.0,88,0.00,,,0.00,0,Wunderground v.1.15,2013-03-06 09:05:00,
2013-03-06 03:10:00,10.3,7.5,30.37,NNW,339,0.0,0.0,88,0.00,,,0.00,0,Wunderground v.1.15,2013-03-06 09:10:00,
2013-03-06 03:15:00,9.8,6.7,30.37,NNW,339,0.0,1.0,87,0.00,,,0.00,0,Wunderground v.1.15,2013-03-06 09:15:00,
2013-03-06 03:20:00,9.2,6.1,30.37,NNW,339,0.0,0.0,87,0.00,,,0.00,0,Wunderground v.1.15,2013-03-06 09:20:00,
2013-03-06 03:25:00,8.9,5.8,30.36,NNW,339,0.0,0.0,87,0.00,,,0.00,0,Wunderground v.1.15,2013-03-06 09:25:00,
2013-03-06 03:30:00,9.0,6.2,30.36,NNW,339,0.0,0.0,88,0.00,,,0.00,0,Wunderground v.1.15,2013-03-06 09:30:00,
2013-03-06 03:35:00,9.1,6.3,30.36,NNW,339,0.0,0.0,88,0.00,,,0.00,0,Wunderground v.1.15,2013-03-06 09:35:00,
2013-03-06 03:40:00,9.4,6.6,30.36,NNW,339,0.0,0.0,88,0.00,,,0.00,0,Wunderground v.1.15,2013-03-06 09:40:00,
2013-03-06 03:45:00,9.4,6.6,30.36,NNW,339,0.0,0.0,88,0.00,,,0.00,0,Wunderground v.1.15,2013-03-06 09:45:00,
2013-03-06 03:50:00,8.8,5.7,30.36,NNW,339,0.0,0.0,87,0.00,,,0.00,0,Wunderground v.1.15,2013-03-06 09:50:00,
2013-03-06 03:56:00,8.5,5.4,30.36,NNW,339,0.0,0.0,87,0.00,,,0.00,0,Wunderground v.1.15,2013-03-06 09:56:00,
2013-03-06 04:01:00,9.2,6.4,30.36,NNW,339,0.0,1.0,88,0.00,,,0.00,0,Wunderground v.1.15,2013-03-06 10:01:00,
2013-03-06 04:06:00,9.9,7.1,30.36,NNW,339,0.0,1.0,88,0.00,,,0.00,0,Wunderground v.1.15,2013-03-06 10:06:00,
2013-03-06 04:11:00,10.2,7.4,30.36,NNW,339,0.0,0.0,88,0.00,,,0.00,0,Wunderground v.1.15,2013-03-06 10:11:00,
2013-03-06 04:16:00,10.2,7.4,30.35,NNW,339,1.0,1.0,88,0.00,,,0.00,0,Wunderground v.1.15,2013-03-06 10:16:00,
2013-03-06 04:21:00,9.4,6.6,30.35,NNW,339,2.0,2.0,88,0.00,,,0.00,0,Wunderground v.1.15,2013-03-06 10:21:00,
2013-03-06 04:26:00,9.1,6.3,30.36,NNW,339,0.0,2.0,88,0.00,,,0.00,0,Wunderground v.1.15,2013-03-06 10:26:00,
2013-03-06 04:31:00,9.5,6.7,30.36,NNW,339,1.0,2.0,88,0.00,,,0.00,0,Wunderground v.1.15,2013-03-06 10:31:00,
2013-03-06 04:36:00,9.7,6.9,30.36,NNW,339,0.0,2.0,88,0.00,,,0.00,0,Wunderground v.1.15,2013-03-06 10:36:00,
2013-03-06 04:41:00,9.8,7.0,30.36,NNW,339,0.0,0.0,88,0.00,,,0.00,0,Wunderground v.1.15,2013-03-06 10:41:00,
2013-03-06 04:46:00,9.6,6.8,30.37,NNW,339,2.0,2.0,88,0.00,,,0.00,0,Wunderground v.1.15,2013-03-06 10:46:00,
2013-03-06 04:51:00,9.4,6.6,30.37,NNW,339,0.0,2.0,88,0.00,,,0.00,0,Wunderground v.1.15,2013-03-06 10:51:00,
2013-03-06 04:56:00,9.2,6.4,30.37,NNW,339,1.0,2.0,88,0.00,,,0.00,0,Wunderground v.1.15,2013-03-06 10:56:00,
2013-03-06 05:01:00,9.1,6.3,30.37,NNW,339,1.0,2.0,88,0.00,,,0.00,0,Wunderground v.1.15,2013-03-06 11:01:00,
2013-03-06 05:06:00,9.0,6.2,30.38,NNW,339,1.0,2.0,88,0.00,,,0.00,0,Wunderground v.1.15,2013-03-06 11:06:00,
2013-03-06 05:11:00,8.9,6.1,30.37,NNW,339,0.0,1.0,88,0.00,,,0.00,0,Wunderground v.1.15,2013-03-06 11:11:00,
2013-03-06 05:16:00,8.9,6.1,30.37,NNW,339,0.0,1.0,88,0.00,,,0.00,0,Wunderground v.1.15,2013-03-06 11:16:00,
2013-03-06 05:21:00,8.9,6.1,30.37,NNW,339,0.0,1.0,88,0.00,,,0.00,0,Wunderground v.1.15,2013-03-06 11:21:00,
2013-03-06 05:26:00,8.8,6.0,30.37,NNW,339,0.0,1.0,88,0.00,,,0.00,0,Wunderground v.1.15,2013-03-06 11:26:00,
2013-03-06 05:31:00,8.7,5.9,30.37,NNW,339,0.0,0.0,88,0.00,,,0.00,0,Wunderground v.1.15,2013-03-06 11:31:00,
2013-03-06 05:36:00,8.6,5.8,30.37,NNW,339,0.0,0.0,88,0.00,,,0.00,0,Wunderground v.1.15,2013-03-06 11:36:00,
2013-03-06 05:41:00,8.7,5.9,30.37,NNW,339,0.0,0.0,88,0.00,,,0.00,0,Wunderground v.1.15,2013-03-06 11:41:00,
2013-03-06 05:46:00,8.9,6.1,30.37,NNW,339,0.0,0.0,88,0.00,,,0.00,0,Wunderground v.1.15,2013-03-06 11:46:00,
2013-03-06 05:51:00,8.9,6.1,30.37,NNW,339,0.0,0.0,88,0.00,,,0.00,0,Wunderground v.1.15,2013-03-06 11:51:00,
2013-03-06 05:56:00,8.9,6.1,30.36,NNW,339,1.0,2.0,88,0.00,,,0.00,0,Wunderground v.1.15,2013-03-06 11:56:00,
2013-03-06 06:01:00,9.0,6.2,30.36,NNW,339,1.0,2.0,88,0.00,,,0.00,0,Wunderground v.1.15,2013-03-06 12:01:00,
2013-03-06 06:06:00,9.1,6.3,30.36,NNW,339,2.0,3.0,88,0.00,,,0.00,0,Wunderground v.1.15,2013-03-06 12:06:00,
2013-03-06 06:11:00,9.3,6.5,30.36,NNW,339,2.0,3.0,88,0.00,,,0.00,0,Wunderground v.1.15,2013-03-06 12:11:00,
2013-03-06 06:16:00,9.5,6.7,30.36,NNW,339,2.0,3.0,88,0.00,,,0.00,0,Wunderground v.1.15,2013-03-06 12:16:00,
2013-03-06 06:21:00,9.6,6.8,30.36,NNW,339,2.0,2.0,88,0.00,,,0.00,0,Wunderground v.1.15,2013-03-06 12:21:00,
2013-03-06 06:26:00,9.6,6.8,30.36,NNW,339,0.0,2.0,88,0.00,,,0.00,0,Wunderground v.1.15,2013-03-06 12:26:00,
2013-03-06 06:31:00,9.8,7.0,30.36,NNW,339,0.0,1.0,88,0.00,,,0.00,0,Wunderground v.1.15,2013-03-06 12:31:00,
2013-03-06 06:36:00,9.8,7.0,30.36,NNW,339,0.0,1.0,88,0.00,,,0.00,0,Wunderground v.1.15,2013-03-06 12:36:00,
2013-03-06 06:41:00,9.8,7.0,30.36,NNW,339,0.0,0.0,88,0.00,,,0.00,0,Wunderground v.1.15,2013-03-06 12:41:00,
2013-03-06 06:46:00,9.9,7.1,30.36,NNW,339,0.0,0.0,88,0.00,,,0.00,0,Wunderground v.1.15,2013-03-06 12:46:00,
2013-03-06 06:51:00,9.9,7.1,30.36,NNW,339,0.0,0.0,88,0.00,,,0.00,0,Wunderground v.1.15,2013-03-06 12:51:00,
2013-03-06 06:56:00,9.9,7.1,30.36,NNW,339,0.0,0.0,88,0.00,,,0.00,0,Wunderground v.1.15,2013-03-06 12:56:00,
2013-03-06 07:01:00,9.9,7.1,30.36,NNW,339,0.0,0.0,88,0.00,,,0.00,0,Wunderground v.1.15,2013-03-06 13:01:00,
2013-03-06 07:06:00,10.3,7.5,30.37,NNW,339,2.0,3.0,88,0.00,,,0.00,7,Wunderground v.1.15,2013-03-06 13:06:00,
2013-03-06 07:12:00,10.6,7.7,30.36,NNW,339,0.0,1.0,88,0.00,,,0.00,11,Wunderground v.1.15,2013-03-06 13:12:00,
2013-03-06 07:17:00,10.7,8.1,30.37,NNW,339,1.0,1.0,89,0.00,,,0.00,14,Wunderground v.1.15,2013-03-06 13:17:00,
2013-03-06 07:22:00,11.2,8.3,30.37,NNW,339,2.0,3.0,88,0.00,,,0.00,18,Wunderground v.1.15,2013-03-06 13:22:00,
2013-03-06 07:27:00,11.4,8.8,30.37,NNW,339,1.0,3.0,89,0.00,,,0.00,25,Wunderground v.1.15,2013-03-06 13:27:00,
2013-03-06 07:32:00,11.7,9.1,30.37,NNW,339,0.0,2.0,89,0.00,,,0.00,26,Wunderground v.1.15,2013-03-06 13:32:00,
2013-03-06 07:37:00,12.5,9.9,30.37,NNW,339,2.0,3.0,89,0.00,,,0.00,33,Wunderground v.1.15,2013-03-06 13:37:00,
2013-03-06 07:42:00,13.2,10.6,30.37,NNW,339,2.0,3.0,89,0.00,,,0.00,39,Wunderground v.1.15,2013-03-06 13:42:00,
2013-03-06 07:47:00,13.9,11.3,30.37,North,5,4.0,4.0,89,0.00,,,0.00,47,Wunderground v.1.15,2013-03-06 13:47:00,
2013-03-06 07:52:00,14.4,11.8,30.37,NNE,26,3.0,5.0,89,0.00,,,0.00,58,Wunderground v.1.15,2013-03-06 13:52:00,
2013-03-06 07:57:00,14.6,11.9,30.38,NE,55,3.0,5.0,89,0.00,,,0.00,62,Wunderground v.1.15,2013-03-06 13:57:00,
2013-03-06 08:02:00,14.7,12.0,30.38,ENE,71,4.0,5.0,89,0.00,,,0.00,69,Wunderground v.1.15,2013-03-06 14:02:00,
2013-03-06 08:07:00,14.8,12.1,30.38,ENE,74,4.0,5.0,89,0.00,,,0.00,79,Wunderground v.1.15,2013-03-06 14:07:00,
2013-03-06 08:13:00,15.1,12.4,30.38,East,98,3.0,6.0,89,0.00,,,0.00,83,Wunderground v.1.15,2013-03-06 14:13:00,
2013-03-06 08:39:00,14.9,12.2,30.39,ESE,115,3.0,4.0,89,0.00,,,0.00,118,Wunderground v.1.15,2013-03-06 14:39:00,
2013-03-06 08:44:00,15.1,12.4,30.39,East,94,3.0,6.0,89,0.00,,,0.00,128,Wunderground v.1.15,2013-03-06 14:44:00,
2013-03-06 08:49:00,15.2,12.5,30.39,SE,136,2.0,3.0,89,0.00,,,0.00,128,Wunderground v.1.15,2013-03-06 14:49:00,
2013-03-06 08:54:00,15.3,12.6,30.39,East,84,7.0,8.0,89,0.00,,,0.00,151,Wunderground v.1.15,2013-03-06 14:54:00,
2013-03-06 08:59:00,15.7,13.0,30.39,SE,137,5.0,6.0,89,0.00,,,0.00,134,Wunderground v.1.15,2013-03-06 14:59:00,
2013-03-06 09:04:00,15.6,12.9,30.39,SE,140,4.0,6.0,89,0.00,,,0.00,167,Wunderground v.1.15,2013-03-06 15:04:00,
2013-03-06 09:09:00,15.8,13.4,30.38,East,89,5.0,7.0,90,0.00,,,0.00,206,Wunderground v.1.15,2013-03-06 15:09:00,
2013-03-06 09:14:00,15.9,13.2,30.39,East,92,2.0,5.0,89,0.00,,,0.00,181,Wunderground v.1.15,2013-03-06 15:14:00,
2013-03-06 09:19:00,16.4,14.0,30.38,East,96,3.0,8.0,90,0.00,,,0.00,174,Wunderground v.1.15,2013-03-06 15:19:00,
2013-03-06 09:24:00,16.9,14.5,30.39,SE,140,8.0,8.0,90,0.00,,,0.00,244,Wunderground v.1.15,2013-03-06 15:24:00,
2013-03-06 09:29:00,16.7,14.0,30.38,SSE,161,4.0,8.0,89,0.00,,,0.00,146,Wunderground v.1.15,2013-03-06 15:29:00,
2013-03-06 09:34:00,16.6,14.2,30.38,SSE,161,4.0,6.0,90,0.00,,,0.00,181,Wunderground v.1.15,2013-03-06 15:34:00,
2013-03-06 09:39:00,17.0,14.6,30.38,ESE,113,5.0,6.0,90,0.00,,,0.00,223,Wunderground v.1.15,2013-03-06 15:39:00,
2013-03-06 09:44:00,17.1,14.7,30.38,SE,136,4.0,8.0,90,0.00,,,0.00,197,Wunderground v.1.15,2013-03-06 15:44:00,
2013-03-06 09:49:00,17.6,15.2,30.38,ESE,106,4.0,8.0,90,0.00,,,0.00,246,Wunderground v.1.15,2013-03-06 15:49:00,
2013-03-06 09:55:00,18.1,15.7,30.38,SE,130,2.0,6.0,90,0.00,,,0.00,299,Wunderground v.1.15,2013-03-06 15:55:00,
2013-03-06 10:00:00,18.5,16.1,30.38,SE,142,4.0,4.0,90,0.00,,,0.00,302,Wunderground v.1.15,2013-03-06 16:00:00,
2013-03-06 10:05:00,18.2,15.8,30.38,South,175,6.0,6.0,90,0.00,,,0.00,320,Wunderground v.1.15,2013-03-06 16:05:00,
2013-03-06 10:10:00,18.4,16.0,30.38,SSE,165,5.0,8.0,90,0.00,,,0.00,234,Wunderground v.1.15,2013-03-06 16:10:00,
2013-03-06 10:15:00,18.6,16.2,30.38,South,178,6.0,8.0,90,0.00,,,0.00,394,Wunderground v.1.15,2013-03-06 16:15:00,
2013-03-06 10:20:00,19.0,16.6,30.38,South,185,7.0,7.0,90,0.00,,,0.00,329,Wunderground v.1.15,2013-03-06 16:20:00,
2013-03-06 10:25:00,19.3,16.8,30.37,SSE,159,4.0,7.0,90,0.00,,,0.00,367,Wunderground v.1.15,2013-03-06 16:25:00,
2013-03-06 10:30:00,19.4,16.9,30.37,SE,138,2.0,4.0,90,0.00,,,0.00,320,Wunderground v.1.15,2013-03-06 16:30:00,
2013-03-06 10:35:00,20.2,17.7,30.37,South,171,4.0,9.0,90,0.00,,,0.00,341,Wunderground v.1.15,2013-03-06 16:35:00,
2013-03-06 10:40:00,20.4,17.9,30.37,South,178,8.0,8.0,90,0.00,,,0.00,408,Wunderground v.1.15,2013-03-06 16:40:00,
2013-03-06 10:45:00,20.8,18.3,30.37,South,184,7.0,11.0,90,0.00,,,0.00,369,Wunderground v.1.15,2013-03-06 16:45:00,
2013-03-06 10:50:00,21.9,19.4,30.36,SSE,165,12.0,13.0,90,0.00,,,0.00,710,Wunderground v.1.15,2013-03-06 16:50:00,
2013-03-06 10:55:00,21.5,19.0,30.36,South,181,13.0,14.0,90,0.00,,,0.00,710,Wunderground v.1.15,2013-03-06 16:55:00,
2013-03-06 11:00:00,21.8,19.3,30.36,SSE,153,11.0,11.0,90,0.00,,,0.00,737,Wunderground v.1.15,2013-03-06 17:00:00,
2013-03-06 11:05:00,22.5,20.0,30.36,South,170,8.0,13.0,90,0.00,,,0.00,729,Wunderground v.1.15,2013-03-06 17:05:00,
2013-03-06 11:10:00,22.3,19.8,30.36,South,179,9.0,12.0,90,0.00,,,0.00,622,Wunderground v.1.15,2013-03-06 17:10:00,
2013-03-06 11:15:00,23.0,20.5,30.36,SSE,168,7.0,14.0,90,0.00,,,0.00,682,Wunderground v.1.15,2013-03-06 17:15:00,
2013-03-06 11:20:00,23.2,20.4,30.35,South,179,9.0,9.0,89,0.00,,,0.00,671,Wunderground v.1.15,2013-03-06 17:20:00,
2013-03-06 11:25:00,23.6,20.6,30.35,SSE,165,11.0,12.0,88,0.00,,,0.00,679,Wunderground v.1.15,2013-03-06 17:25:00,
2013-03-06 11:30:00,24.2,20.9,30.35,SSE,161,7.0,9.0,87,0.00,,,0.00,684,Wunderground v.1.15,2013-03-06 17:30:00,
2013-03-06 11:35:00,25.8,21.9,30.35,South,171,8.0,13.0,85,0.00,,,0.00,689,Wunderground v.1.15,2013-03-06 17:35:00,
2013-03-06 11:40:00,26.9,22.1,30.35,SE,137,11.0,11.0,82,0.00,,,0.00,696,Wunderground v.1.15,2013-03-06 17:40:00,
2013-03-06 11:46:00,27.3,21.0,30.35,South,185,13.0,16.0,77,0.00,,,0.00,705,Wunderground v.1.15,2013-03-06 17:46:00,
2013-03-06 11:51:00,26.9,20.3,30.34,SE,144,8.0,10.0,76,0.00,,,0.00,710,Wunderground v.1.15,2013-03-06 17:51:00,
2013-03-06 11:56:00,27.6,20.4,30.34,SE,143,11.0,15.0,74,0.00,,,0.00,715,Wunderground v.1.15,2013-03-06 17:56:00,
2013-03-06 12:01:00,28.5,20.6,30.33,SSW,193,12.0,12.0,72,0.00,,,0.00,715,Wunderground v.1.15,2013-03-06 18:01:00,
2013-03-06 12:06:00,28.8,20.2,30.33,SSE,159,13.0,13.0,70,0.00,,,0.00,686,Wunderground v.1.15,2013-03-06 18:06:00,
2013-03-06 12:11:00,29.2,19.9,30.33,SSE,150,8.0,10.0,68,0.00,,,0.00,724,Wunderground v.1.15,2013-03-06 18:11:00,
2013-03-06 12:16:00,29.3,20.0,30.32,South,171,12.0,14.0,68,0.00,,,0.00,666,Wunderground v.1.15,2013-03-06 18:16:00,
2013-03-06 12:21:00,29.8,20.2,30.32,SSE,159,16.0,16.0,67,0.00,,,0.00,735,Wunderground v.1.15,2013-03-06 18:21:00,
2013-03-06 12:26:00,30.0,20.0,30.32,SSE,152,14.0,17.0,66,0.00,,,0.00,735,Wunderground v.1.15,2013-03-06 18:26:00,
2013-03-06 12:31:00,30.6,20.6,30.32,SSE,160,12.0,14.0,66,0.00,,,0.00,737,Wunderground v.1.15,2013-03-06 18:31:00,
2013-03-06 12:36:00,30.8,20.4,30.31,SE,144,7.0,15.0,65,0.00,,,0.00,728,Wunderground v.1.15,2013-03-06 18:36:00,
2013-03-06 12:41:00,31.3,19.4,30.31,South,189,9.0,14.0,61,0.00,,,0.00,738,Wunderground v.1.15,2013-03-06 18:41:00,
2013-03-06 12:46:00,31.6,20.1,30.30,SSE,167,14.0,17.0,62,0.00,,,0.00,737,Wunderground v.1.15,2013-03-06 18:46:00,
2013-03-06 12:51:00,31.7,19.8,30.30,SE,146,12.0,14.0,61,0.00,,,0.00,742,Wunderground v.1.15,2013-03-06 18:51:00,
2013-03-06 12:56:00,32.9,20.1,30.30,South,182,9.0,15.0,59,0.00,,,0.00,740,Wunderground v.1.15,2013-03-06 18:56:00,
2013-03-06 13:01:00,32.8,19.6,30.29,SSE,152,13.0,17.0,58,0.00,,,0.00,744,Wunderground v.1.15,2013-03-06 19:01:00,
2013-03-06 13:06:00,32.8,20.0,30.29,SE,138,13.0,17.0,59,0.00,,,0.00,738,Wunderground v.1.15,2013-03-06 19:06:00,
2013-03-06 13:11:00,33.4,20.2,30.28,SSE,165,10.0,20.0,58,0.00,,,0.00,738,Wunderground v.1.15,2013-03-06 19:11:00,
2013-03-06 13:16:00,33.1,19.1,30.28,SSE,155,12.0,20.0,56,0.00,,,0.00,737,Wunderground v.1.15,2013-03-06 19:16:00,
2013-03-06 13:21:00,33.5,19.5,30.27,SSE,166,13.0,19.0,56,0.00,,,0.00,737,Wunderground v.1.15,2013-03-06 19:21:00,
2013-03-06 13:27:00,34.0,19.9,30.27,SE,145,13.0,19.0,56,0.00,,,0.00,729,Wunderground v.1.15,2013-03-06 19:27:00,
2013-03-06 13:32:00,34.1,19.2,30.26,SE,144,15.0,18.0,54,0.00,,,0.00,731,Wunderground v.1.15,2013-03-06 19:32:00,
2013-03-06 13:37:00,34.6,20.5,30.25,SSE,165,8.0,19.0,56,0.00,,,0.00,726,Wunderground v.1.15,2013-03-06 19:37:00,
2013-03-06 13:42:00,34.9,19.9,30.25,SE,144,16.0,17.0,54,0.00,,,0.00,722,Wunderground v.1.15,2013-03-06 19:42:00,
2013-03-06 13:47:00,34.9,19.5,30.25,SE,134,15.0,17.0,53,0.00,,,0.00,717,Wunderground v.1.15,2013-03-06 19:47:00,
2013-03-06 13:52:00,35.5,19.6,30.24,SSE,161,15.0,20.0,52,0.00,,,0.00,715,Wunderground v.1.15,2013-03-06 19:52:00,
2013-03-06 13:57:00,35.5,19.6,30.24,SE,145,17.0,23.0,52,0.00,,,0.00,707,Wunderground v.1.15,2013-03-06 19:57:00,
2013-03-06 14:02:00,35.8,19.4,30.24,SE,146,12.0,20.0,51,0.00,,,0.00,700,Wunderground v.1.15,2013-03-06 20:02:00,
2013-03-06 14:07:00,36.3,19.4,30.24,SSE,151,12.0,20.0,50,0.00,,,0.00,693,Wunderground v.1.15,2013-03-06 20:07:00,
2013-03-06 14:12:00,36.9,20.4,30.23,SE,143,16.0,16.0,51,0.00,,,0.00,689,Wunderground v.1.15,2013-03-06 20:12:00,
2013-03-06 14:17:00,36.8,19.4,30.23,SSE,161,15.0,19.0,49,0.00,,,0.00,680,Wunderground v.1.15,2013-03-06 20:17:00,
2013-03-06 14:22:00,36.7,19.3,30.22,SSE,152,13.0,19.0,49,0.00,,,0.00,673,Wunderground v.1.15,2013-03-06 20:22:00,
2013-03-06 14:27:00,36.8,19.4,30.22,SE,144,16.0,20.0,49,0.00,,,0.00,668,Wunderground v.1.15,2013-03-06 20:27:00,
2013-03-06 14:32:00,37.2,18.8,30.22,SSE,150,14.0,20.0,47,0.00,,,0.00,657,Wunderground v.1.15,2013-03-06 20:32:00,
2013-03-06 14:37:00,37.1,19.7,30.22,SE,141,13.0,20.0,49,0.00,,,0.00,650,Wunderground v.1.15,2013-03-06 20:37:00,
2013-03-06 14:42:00,37.3,20.3,30.21,SSE,154,17.0,20.0,50,0.00,,,0.00,643,Wunderground v.1.15,2013-03-06 20:42:00,
2013-03-06 14:47:00,37.3,20.3,30.21,SSE,155,15.0,21.0,50,0.00,,,0.00,633,Wunderground v.1.15,2013-03-06 20:47:00,
2013-03-06 14:52:00,37.5,20.5,30.21,SE,127,13.0,19.0,50,0.00,,,0.00,621,Wunderground v.1.15,2013-03-06 20:52:00,
2013-03-06 14:57:00,37.6,20.1,30.21,SE,145,19.0,20.0,49,0.00,,,0.00,610,Wunderground v.1.15,2013-03-06 20:57:00,
2013-03-06 15:02:00,37.3,19.9,30.21,ESE,116,14.0,18.0,49,0.00,,,0.00,599,Wunderground v.1.15,2013-03-06 21:02:00,
2013-03-06 15:07:00,37.3,19.4,30.21,SE,145,18.0,24.0,48,0.00,,,0.00,591,Wunderground v.1.15,2013-03-06 21:07:00,
2013-03-06 15:12:00,37.4,19.5,30.20,SE,138,13.0,17.0,48,0.00,,,0.00,582,Wunderground v.1.15,2013-03-06 21:12:00,
2013-03-06 15:17:00,37.8,19.8,30.20,South,175,11.0,20.0,48,0.00,,,0.00,568,Wunderground v.1.15,2013-03-06 21:17:00,
2013-03-06 15:22:00,37.4,19.5,30.20,South,181,20.0,20.0,48,0.00,,,0.00,557,Wunderground v.1.15,2013-03-06 21:22:00,
2013-03-06 15:27:00,37.9,21.4,30.20,East,98,15.0,22.0,51,0.00,,,0.00,545,Wunderground v.1.15,2013-03-06 21:27:00,
2013-03-06 15:32:00,37.9,20.9,30.20,SE,140,11.0,19.0,50,0.00,,,0.00,531,Wunderground v.1.15,2013-03-06 21:32:00,
2013-03-06 15:37:00,37.5,21.0,30.19,SSE,157,7.0,21.0,51,0.00,,,0.00,519,Wunderground v.1.15,2013-03-06 21:37:00,
2013-03-06 15:42:00,37.4,21.4,30.19,ESE,114,15.0,21.0,52,0.00,,,0.00,506,Wunderground v.1.15,2013-03-06 21:42:00,
2013-03-06 15:47:00,37.5,21.5,30.19,ESE,111,12.0,23.0,52,0.00,,,0.00,492,Wunderground v.1.15,2013-03-06 21:47:00,
2013-03-06 15:52:00,37.5,21.5,30.18,SE,142,15.0,21.0,52,0.00,,,0.00,478,Wunderground v.1.15,2013-03-06 21:52:00,
2013-03-06 15:57:00,37.3,21.3,30.18,ESE,123,7.0,22.0,52,0.00,,,0.00,462,Wunderground v.1.15,2013-03-06 21:57:00,
2013-03-06 16:02:00,37.3,21.3,30.18,SE,140,13.0,23.0,52,0.00,,,0.00,448,Wunderground v.1.15,2013-03-06 22:02:00,
2013-03-06 16:07:00,37.7,21.6,30.18,SSE,150,17.0,23.0,52,0.00,,,0.00,436,Wunderground v.1.15,2013-03-06 22:07:00,
2013-03-06 16:12:00,37.3,21.3,30.18,SE,134,9.0,22.0,52,0.00,,,0.00,418,Wunderground v.1.15,2013-03-06 22:12:00,
2013-03-06 16:17:00,37.1,21.5,30.17,SSE,153,13.0,23.0,53,0.00,,,0.00,404,Wunderground v.1.15,2013-03-06 22:17:00,
2013-03-06 16:22:00,37.1,21.1,30.17,SE,135,16.0,21.0,52,0.00,,,0.00,387,Wunderground v.1.15,2013-03-06 22:22:00,
2013-03-06 16:27:00,36.8,20.8,30.17,ESE,116,18.0,21.0,52,0.00,,,0.00,374,Wunderground v.1.15,2013-03-06 22:27:00,
2013-03-06 16:32:00,36.9,21.3,30.17,ESE,106,13.0,18.0,53,0.00,,,0.00,359,Wunderground v.1.15,2013-03-06 22:32:00,
2013-03-06 16:37:00,37.0,21.0,30.17,ESE,116,15.0,19.0,52,0.00,,,0.00,345,Wunderground v.1.15,2013-03-06 22:37:00,
2013-03-06 16:43:00,36.7,21.2,30.17,ESE,113,17.0,19.0,53,0.00,,,0.00,325,Wunderground v.1.15,2013-03-06 22:43:00,
2013-03-06 16:48:00,36.7,21.6,30.17,SE,126,6.0,21.0,54,0.00,,,0.00,313,Wunderground v.1.15,2013-03-06 22:48:00,
2013-03-06 16:53:00,36.6,21.5,30.17,SE,136,18.0,21.0,54,0.00,,,0.00,297,Wunderground v.1.15,2013-03-06 22:53:00,
2013-03-06 16:58:00,36.2,21.1,30.17,SE,138,15.0,21.0,54,0.00,,,0.00,281,Wunderground v.1.15,2013-03-06 22:58:00,
2013-03-06 17:03:00,36.2,21.1,30.16,SE,140,15.0,21.0,54,0.00,,,0.00,265,Wunderground v.1.15,2013-03-06 23:03:00,
2013-03-06 17:08:00,36.2,20.7,30.16,SSE,153,10.0,21.0,53,0.00,,,0.00,244,Wunderground v.1.15,2013-03-06 23:08:00,
2013-03-06 17:13:00,36.1,21.0,30.16,SE,146,15.0,21.0,54,0.00,,,0.00,225,Wunderground v.1.15,2013-03-06 23:13:00,
2013-03-06 17:18:00,35.9,20.9,30.16,SSE,151,16.0,21.0,54,0.00,,,0.00,204,Wunderground v.1.15,2013-03-06 23:18:00,
2013-03-06 17:23:00,35.8,21.6,30.16,ESE,114,8.0,16.0,56,0.00,,,0.00,181,Wunderground v.1.15,2013-03-06 23:23:00,
2013-03-06 17:28:00,35.6,21.9,30.16,SSE,157,17.0,18.0,57,0.00,,,0.00,163,Wunderground v.1.15,2013-03-06 23:28:00,
2013-03-06 17:33:00,35.5,21.8,30.16,SE,134,14.0,17.0,57,0.00,,,0.00,141,Wunderground v.1.15,2013-03-06 23:33:00,
2013-03-06 17:38:00,35.2,21.9,30.16,SE,137,19.0,20.0,58,0.00,,,0.00,49,Wunderground v.1.15,2013-03-06 23:38:00,
2013-03-06 17:43:00,35.0,22.1,30.16,SE,134,15.0,21.0,59,0.00,,,0.00,32,Wunderground v.1.15,2013-03-06 23:43:00,
2013-03-06 17:48:00,34.8,21.9,30.15,SE,126,12.0,21.0,59,0.00,,,0.00,30,Wunderground v.1.15,2013-03-06 23:48:00,
2013-03-06 17:53:00,34.6,21.7,30.15,SE,135,13.0,20.0,59,0.00,,,0.00,26,Wunderground v.1.15,2013-03-06 23:53:00,
2013-03-06 17:58:00,34.3,21.8,30.15,SE,135,12.0,20.0,60,0.00,,,0.00,25,Wunderground v.1.15,2013-03-06 23:58:00,
2013-03-06 18:03:00,34.1,22.0,30.15,SE,142,14.0,15.0,61,0.00,,,0.00,21,Wunderground v.1.15,2013-03-07 00:03:00,
2013-03-06 18:08:00,33.8,22.1,30.15,SE,142,13.0,18.0,62,0.00,,,0.00,18,Wunderground v.1.15,2013-03-07 00:08:00,
2013-03-06 18:13:00,33.5,22.2,30.15,SE,128,12.0,18.0,63,0.00,,,0.00,14,Wunderground v.1.15,2013-03-07 00:13:00,
2013-03-06 18:18:00,33.2,22.0,30.15,ESE,117,12.0,18.0,63,0.00,,,0.00,12,Wunderground v.1.15,2013-03-07 00:18:00,
2013-03-06 18:33:00,32.3,21.8,30.15,SE,142,13.0,13.0,65,0.00,,,0.00,0,Wunderground v.1.15,2013-03-07 00:33:00,
2013-03-06 18:38:00,31.9,21.5,30.16,SSE,150,11.0,13.0,65,0.00,,,0.00,0,Wunderground v.1.15,2013-03-07 00:38:00,
2013-03-06 18:43:00,31.5,21.4,30.15,SSE,148,8.0,13.0,66,0.00,,,0.00,0,Wunderground v.1.15,2013-03-07 00:43:00,
2013-03-06 18:48:00,31.2,21.5,30.16,SE,146,7.0,13.0,67,0.00,,,0.00,0,Wunderground v.1.15,2013-03-07 00:48:00,
2013-03-06 18:53:00,30.8,21.1,30.16,SE,140,7.0,9.0,67,0.00,,,0.00,0,Wunderground v.1.15,2013-03-07 00:53:00,
2013-03-06 18:58:00,30.4,21.1,30.15,SE,138,7.0,11.0,68,0.00,,,0.00,0,Wunderground v.1.15,2013-03-07 00:58:00,
2013-03-06 19:03:00,30.2,21.2,30.15,SE,126,9.0,11.0,69,0.00,,,0.00,0,Wunderground v.1.15,2013-03-07 01:03:00,
2013-03-06 19:08:00,30.5,21.5,30.14,SE,126,9.0,11.0,69,0.00,,,0.00,0,Wunderground v.1.15,2013-03-07 01:08:00,
2013-03-06 19:13:00,30.4,21.4,30.14,SE,128,9.0,11.0,69,0.00,,,0.00,0,Wunderground v.1.15,2013-03-07 01:13:00,
2013-03-06 20:56:00,29.4,22.1,30.14,SE,130,11.0,11.0,74,0.00,,,0.00,0,Wunderground v.1.15,2013-03-07 02:56:00,
2013-03-06 21:01:00,29.4,22.1,30.14,SSE,155,12.0,14.0,74,0.00,,,0.00,0,Wunderground v.1.15,2013-03-07 03:01:00,
2013-03-06 21:06:00,29.3,22.0,30.14,SE,124,7.0,15.0,74,0.00,,,0.00,0,Wunderground v.1.15,2013-03-07 03:06:00,
2013-03-06 21:11:00,29.3,22.0,30.14,SE,139,10.0,12.0,74,0.00,,,0.00,0,Wunderground v.1.15,2013-03-07 03:11:00,
2013-03-06 21:16:00,29.6,22.0,30.13,ESE,113,14.0,17.0,73,0.00,,,0.00,0,Wunderground v.1.15,2013-03-07 03:16:00,
2013-03-06 21:21:00,29.6,22.0,30.13,SE,132,8.0,15.0,73,0.00,,,0.00,0,Wunderground v.1.15,2013-03-07 03:21:00,
2013-03-06 21:26:00,29.7,21.8,30.13,ESE,123,8.0,17.0,72,0.00,,,0.00,0,Wunderground v.1.15,2013-03-07 03:26:00,
2013-03-06 21:31:00,29.7,21.8,30.13,ESE,113,12.0,15.0,72,0.00,,,0.00,0,Wunderground v.1.15,2013-03-07 03:31:00,
2013-03-06 21:36:00,29.7,22.1,30.13,SE,136,16.0,22.0,73,0.00,,,0.00,0,Wunderground v.1.15,2013-03-07 03:36:00,
2013-03-06 21:41:00,29.7,22.1,30.13,SE,134,13.0,15.0,73,0.00,,,0.00,0,Wunderground v.1.15,2013-03-07 03:41:00,
2013-03-06 21:46:00,29.4,21.8,30.13,SE,133,14.0,22.0,73,0.00,,,0.00,0,Wunderground v.1.15,2013-03-07 03:46:00,
2013-03-06 21:51:00,29.3,22.0,30.13,SE,137,14.0,17.0,74,0.00,,,0.00,0,Wunderground v.1.15,2013-03-07 03:51:00,
2013-03-06 21:56:00,29.1,21.8,30.13,ESE,121,16.0,20.0,74,0.00,,,0.00,0,Wunderground v.1.15,2013-03-07 03:56:00,
2013-03-06 22:01:00,29.2,21.9,30.13,SE,144,12.0,15.0,74,0.00,,,0.00,0,Wunderground v.1.15,2013-03-07 04:01:00,
2013-03-06 22:06:00,29.1,21.8,30.13,SE,139,12.0,15.0,74,0.00,,,0.00,0,Wunderground v.1.15,2013-03-07 04:06:00,
2013-03-06 22:11:00,29.0,22.1,30.13,SE,133,9.0,20.0,75,0.00,,,0.00,0,Wunderground v.1.15,2013-03-07 04:11:00,
2013-03-06 22:16:00,29.0,22.1,30.13,SE,141,20.0,20.0,75,0.00,,,0.00,0,Wunderground v.1.15,2013-03-07 04:16:00,
2013-03-06 22:21:00,29.1,22.2,30.13,SE,139,17.0,19.0,75,0.00,,,0.00,0,Wunderground v.1.15,2013-03-07 04:21:00,
2013-03-06 22:26:00,29.0,22.1,30.13,SE,137,12.0,19.0,75,0.00,,,0.00,0,Wunderground v.1.15,2013-03-07 04:26:00,
2013-03-06 22:31:00,29.0,22.1,30.13,SE,144,13.0,18.0,75,0.00,,,0.00,0,Wunderground v.1.15,2013-03-07 04:31:00,
2013-03-06 22:36:00,29.1,22.2,30.14,SE,144,17.0,18.0,75,0.00,,,0.00,0,Wunderground v.1.15,2013-03-07 04:36:00,
2013-03-06 22:41:00,29.2,22.3,30.14,SE,128,13.0,18.0,75,0.00,,,0.00,0,Wunderground v.1.15,2013-03-07 04:41:00,
2013-03-06 22:46:00,29.1,22.2,30.14,SE,132,14.0,18.0,75,0.00,,,0.00,0,Wunderground v.1.15,2013-03-07 04:46:00,
2013-03-06 22:51:00,29.0,22.1,30.12,SE,136,16.0,19.0,75,0.00,,,0.00,0,Wunderground v.1.15,2013-03-07 04:51:00,
2013-03-06 22:56:00,29.2,22.3,30.12,SE,138,18.0,20.0,75,0.00,,,0.00,0,Wunderground v.1.15,2013-03-07 04:56:00,
2013-03-06 23:00:00,29.3,22.4,30.12,SE,134,16.0,16.0,75,0.00,,,0.00,0,Wunderground v.1.15,2013-03-07 05:00:00,
2013-03-06 23:05:00,29.2,22.3,30.12,SE,137,16.0,19.0,75,0.00,,,0.00,0,Wunderground v.1.15,2013-03-07 05:05:00,
2013-03-06 23:10:00,29.3,22.4,30.12,ESE,120,14.0,15.0,75,0.00,,,0.00,0,Wunderground v.1.15,2013-03-07 05:10:00,
2013-03-06 23:15:00,29.4,22.5,30.12,SSE,147,16.0,24.0,75,0.00,,,0.00,0,Wunderground v.1.15,2013-03-07 05:15:00,
2013-03-06 23:20:00,29.3,22.4,30.11,SSE,149,15.0,20.0,75,0.00,,,0.00,0,Wunderground v.1.15,2013-03-07 05:20:00,
2013-03-06 23:25:00,29.2,22.3,30.11,SSE,150,18.0,23.0,75,0.00,,,0.00,0,Wunderground v.1.15,2013-03-07 05:25:00,
2013-03-06 23:30:00,29.3,22.4,30.11,SE,140,14.0,19.0,75,0.00,,,0.00,0,Wunderground v.1.15,2013-03-07 05:30:00,
2013-03-06 23:35:00,29.0,22.1,30.12,SE,146,11.0,19.0,75,0.00,,,0.00,0,Wunderground v.1.15,2013-03-07 05:35:00,
2013-03-06 23:40:00,28.8,21.9,30.12,SE,144,15.0,15.0,75,0.00,,,0.00,0,Wunderground v.1.15,2013-03-07 05:40:00,
2013-03-06 23:45:00,28.8,22.2,30.12,SSE,149,15.0,19.0,76,0.00,,,0.00,0,Wunderground v.1.15,2013-03-07 05:45:00,
2013-03-06 23:50:00,28.7,22.1,30.11,SE,141,12.0,16.0,76,0.00,,,0.00,0,Wunderground v.1.15,2013-03-07 05:50:00,
2013-03-06 23:55:00,28.7,22.1,30.11,SSE,154,14.0,21.0,76,0.00,,,0.00,0,Wunderground v.1.15,2013-03-07 05:55:00,